Weather History for Phuket, Thailand

Change the Weather History Date:

Friday, November 16, 2012

  Actual Average Record
Temperature  
Mean Temperature 82 °F -  
Max Temperature 91 °F 88 °F 96 °F (1996)
Min Temperature 74 °F 74 °F 73 °F (2007)
Cooling Degree Days 18    
Growing Degree Days 32 (Base 50)    
Moisture  
Dew Point 75 °F    
Average Humidity 76    
Maximum Humidity 95    
Minimum Humidity 61    
Precipitation  
Precipitation 0.00 in 0.16 in - ()
Sea Level Pressure  
Sea Level Pressure 29.84 in    
Wind  
Wind Speed 4 mph ()    
Max Wind Speed 10 mph    
Max Gust Speed -    
Visibility 5.6 miles    
Events Thunderstorm    
Averages and records for this station are not official NWS values.
T = Trace of Precipitation, MM = Missing Value Source: Averaged Metar Reports

Daily Weather History Graph

Daily Weather History Graph

Search for Another Location

Airport:

Trip Planner

Search our weather history database for the weather conditions in past years. The results will help you decide how hot, cold, wet, or windy it might be!

Date:

Astronomy

Nov. 16, 2012 Rise Set
Actual Time 6:19 AM ICT 6:03 PM ICT
Civil Twilight 5:57 AM ICT 6:25 PM ICT
Nautical Twilight 5:31 AM ICT 6:51 PM ICT
Astronomical Twilight 5:06 AM ICT 7:16 PM ICT
Moon 8:32 AM ICT (11/16) 8:36 PM ICT (11/16)
Length of Visible Light 12h 28m
Length of Day
11h 44m
Waxing Crescent, 8% of the Moon is Illuminated
Nov 16
Waxing Crescent
Nov 20
First Quarter
Nov 28
Full
Dec 6
Last Quarter
Dec 13
New

Hourly Weather History & Observations

Time (ICT) Temp. Heat Index Dew Point Humidity Pressure Visibility Wind Dir Wind Speed Gust Speed Precip Events Conditions
12:00 AM 82.4 °F 89.5 °F 75.2 °F 79% 29.89 in 6.2 mi NNW 8.1 mph - N/A   Mostly Cloudy
12:30 AM 82.4 °F 89.5 °F 75.2 °F 79% 29.89 in 6.2 mi NNW 3.5 mph - N/A   Mostly Cloudy
1:00 AM 81 °F - 74 °F 74% 29.83 in 6 mi West 4.6 mph - -   Scattered Clouds
1:00 AM 82.4 °F 89.5 °F 75.2 °F 79% 29.86 in 6.2 mi West 5.8 mph - N/A   Mostly Cloudy
1:30 AM 82.4 °F 89.5 °F 75.2 °F 79% 29.86 in 6.2 mi NW 4.6 mph - N/A   Mostly Cloudy
2:00 AM 82.4 °F 89.5 °F 75.2 °F 79% 29.83 in 6.2 mi West 3.5 mph - N/A   Mostly Cloudy
3:00 AM 82.4 °F 89.5 °F 75.2 °F 79% 29.83 in 5.6 mi Calm Calm - N/A   Mostly Cloudy
3:30 AM 78.8 °F - 75.2 °F 89% 29.83 in 5.6 mi Calm Calm - N/A   Mostly Cloudy
4:00 AM 78.8 °F - 75.2 °F 89% 29.83 in 5.6 mi Calm Calm - N/A   Mostly Cloudy
4:30 AM 77.0 °F - 75.2 °F 94% 29.83 in 5.6 mi Calm Calm - N/A   Mostly Cloudy
5:00 AM 77.0 °F - 75.2 °F 94% 29.83 in 5.6 mi Calm Calm - N/A   Mostly Cloudy
5:30 AM 77.0 °F - 75.2 °F 94% 29.86 in 5.6 mi Calm Calm - N/A   Mostly Cloudy
6:00 AM 77.0 °F - 75.2 °F 94% 29.86 in 5.6 mi Calm Calm - N/A   Mostly Cloudy
6:30 AM 77.0 °F - 75.2 °F 94% 29.86 in 5.6 mi Calm Calm - N/A   Mostly Cloudy
7:00 AM 78 °F - 77 °F 95% 29.82 in 6 mi Calm Calm - -   Scattered Clouds
7:00 AM 78.8 °F - 75.2 °F 89% 29.86 in 5.6 mi Calm Calm - N/A   Mostly Cloudy
7:30 AM 80.6 °F 87.1 °F 77.0 °F 89% 29.89 in 5.6 mi Calm Calm - N/A   Mostly Cloudy
8:00 AM 84.2 °F 94.1 °F 77.0 °F 79% 29.89 in 5.6 mi Calm Calm - N/A   Mostly Cloudy
8:30 AM 84.2 °F 94.1 °F 77.0 °F 79% 29.89 in 5.6 mi Variable 2.3 mph - N/A   Mostly Cloudy
9:00 AM 86.0 °F 96.9 °F 77.0 °F 74% 29.89 in 5.6 mi Variable 2.3 mph - N/A   Mostly Cloudy
9:30 AM 87.8 °F 97.6 °F 75.2 °F 66% 29.89 in 5.6 mi NE 4.6 mph - N/A   Mostly Cloudy
10:00 AM 87.8 °F 97.6 °F 75.2 °F 66% 29.89 in 5.6 mi ENE 4.6 mph - N/A   Mostly Cloudy
10:30 AM 87.8 °F 97.6 °F 75.2 °F 66% 29.89 in 5.6 mi ENE 4.6 mph - N/A   Mostly Cloudy
11:00 AM 87.8 °F 97.6 °F 75.2 °F 66% 29.89 in 5.6 mi ENE 6.9 mph - N/A   Mostly Cloudy
11:30 AM 89.6 °F 99.8 °F 75.2 °F 62% 29.86 in 5.6 mi Variable 2.3 mph - N/A   Mostly Cloudy
12:00 PM 87.8 °F 97.6 °F 75.2 °F 66% 29.86 in 5.6 mi West 5.8 mph - N/A   Mostly Cloudy
12:30 PM 89.6 °F 99.8 °F 75.2 °F 62% 29.83 in 5.6 mi Variable 5.8 mph - N/A   Mostly Cloudy
1:00 PM 90 °F - 78 °F 61% 29.80 in 6 mi West 8.1 mph - -   Scattered Clouds
1:00 PM 89.6 °F 99.8 °F 75.2 °F 62% 29.83 in 5.6 mi West 8.1 mph - N/A   Mostly Cloudy
1:30 PM 89.6 °F 99.8 °F 75.2 °F 62% 29.80 in 5.6 mi West 8.1 mph - N/A   Mostly Cloudy
2:00 PM 89.6 °F 99.8 °F 75.2 °F 62% 29.80 in 5.6 mi West 10.4 mph - N/A   Mostly Cloudy
2:30 PM 87.8 °F 97.6 °F 75.2 °F 66% 29.77 in 5.6 mi WNW 10.4 mph - N/A   Mostly Cloudy
3:00 PM 87.8 °F 97.6 °F 75.2 °F 66% 29.77 in 5.6 mi WNW 10.4 mph - N/A   Mostly Cloudy
3:30 PM 86.0 °F 95.1 °F 75.2 °F 70% 29.77 in 5.0 mi WNW 9.2 mph - N/A   Mostly Cloudy
4:00 PM 86.0 °F 95.1 °F 75.2 °F 70% 29.77 in 5.0 mi WNW 8.1 mph - N/A   Mostly Cloudy
4:30 PM 86.0 °F 96.9 °F 77.0 °F 74% 29.77 in 5.0 mi WNW 9.2 mph - N/A   Mostly Cloudy
5:00 PM 84.2 °F 94.1 °F 77.0 °F 79% 29.77 in 5.0 mi WNW 9.2 mph - N/A   Mostly Cloudy
5:30 PM 84.2 °F 92.3 °F 75.2 °F 74% 29.80 in 5.0 mi WNW 9.2 mph - N/A   Mostly Cloudy
6:00 PM 84.2 °F 92.3 °F 75.2 °F 74% 29.80 in 5.0 mi WNW 8.1 mph - N/A   Mostly Cloudy
6:30 PM 84.2 °F 92.3 °F 75.2 °F 74% 29.80 in 5.0 mi WNW 8.1 mph - N/A   Mostly Cloudy
7:00 PM 86 °F - 79 °F 74% 29.78 in 6 mi WNW 5.8 mph - -   Mist
7:00 PM 84.2 °F 92.3 °F 75.2 °F 74% 29.80 in 5.0 mi WNW 8.1 mph - N/A   Mostly Cloudy
7:30 PM 84.2 °F 92.3 °F 75.2 °F 74% 29.80 in 5.0 mi WNW 8.1 mph - N/A   Mostly Cloudy
8:00 PM 84.2 °F 94.1 °F 77.0 °F 79% 29.83 in 5.0 mi WNW 6.9 mph - N/A   Mostly Cloudy
8:30 PM 82.4 °F 88.2 °F 73.4 °F 74% 29.86 in 6.2 mi NNW 5.8 mph - N/A   Scattered Clouds
9:00 PM 82.4 °F 88.2 °F 73.4 °F 74% 29.86 in 6.2 mi WNW 5.8 mph - N/A   Scattered Clouds
9:30 PM 82.4 °F 88.2 °F 73.4 °F 74% 29.86 in 6.2 mi WNW 3.5 mph - N/A   Scattered Clouds
10:30 PM 80.6 °F 86.2 °F 75.2 °F 84% 29.89 in 6.2 mi Calm Calm - N/A   Scattered Clouds
11:00 PM 80.6 °F 86.2 °F 75.2 °F 84% 29.89 in 6.2 mi Calm Calm - N/A Thunderstorm Thunderstorm
11:30 PM 80.6 °F 86.2 °F 75.2 °F 84% 29.89 in 5.0 mi Calm Calm - N/A   Mostly Cloudy